RH
8 8 8 8 8 8 8 8 8 8 8 9 9 9 9 9 9 9 9 8 8 8 7 6 6 6 5 5 4 4 4 4 4 4 4 4 4 4 4 4 4 4 4 4 4 4 4 4 4 4 4 4 4 4 4 4 3 3 4 4 4 4 5 6 6 7 8 10 12 15 19 23 27 31 36 40 44 50 55 62 68 69 64 57 52 49 48 44 38 36 38 42 44 46 47 48 47 45 40 34 29 26 24
8 8 8 8 8 8 8 8 8 8 8 8 8 8 9 9 9 9 9 9 9 8 8 8 7 7 6 6 5 5 5 4 4 4 4 4 4 4 4 4 4 4 4 4 4 4 4 4 4 4 4 4 4 4 4 4 4 3 3 3 4 4 4 4 5 6 6 7 8 10 13 16 20 24 28 33 38 42 47 54 61 67 70 65 60 54 52 47 42 37 35 40 43 45 46 46 48 47 44 37 32 28 25
8 8 8 8 8 8 8 8 8 8 8 8 8 8 8 8 8 9 9 9 9 9 8 8 8 8 7 7 6 6 6 5 5 5 5 4 4 4 4 4 4 4 4 4 4 4 4 4 4 4 4 4 4 4 4 4 4 4 4 3 3 3 4 4 4 4 5 6 6 8 9 11 14 18 22 26 31 36 40 46 52 60 68 70 67 61 55 50 46 41 36 36 39 42 45 45 46 46 46 40 35 30 26
9 9 9 9 9 9 9 9 9 9 9 9 8 8 8 8 8 8 8 8 9 9 9 8 8 8 8 8 7 7 6 6 6 5 5 5 5 5 5 5 5 4 4 4 4 4 4 4 4 4 4 4 4 4 4 4 4 4 4 4 4 3 3 3 4 4 4 4 5 6 6 8 10 12 16 19 24 29 34 38 44 50 58 67 70 69 62 56 50 46 41 38 36 38 42 42 42 43 43 42 37 32 27
9 9 10 10 10 10 10 10 10 10 10 10 10 9 9 9 9 9 9 9 8 8 8 8 8 8 8 8 8 8 7 7 6 6 6 6 5 5 5 5 5 5 5 5 4 4 4 4 4 4 4 4 4 3 3 4 4 4 4 4 4 4 4 3 3 3 4 4 4 5 5 6 7 8 10 14 18 22 26 32 37 42 48 58 66 72 71 63 56 52 48 44 40 38 38 40 40 39 40 39 37 33 28
8 8 9 10 10 10 10 10 10 10 10 10 10 10 10 10 10 10 9 9 9 9 8 8 8 8 8 8 8 8 8 8 7 7 7 6 6 6 5 5 5 5 5 5 5 5 4 4 4 4 4 4 4 4 3 3 3 3 4 4 4 4 4 4 4 3 3 4 4 4 4 5 6 6 8 10 12 16 20 24 30 34 40 47 56 66 74 70 63 56 52 50 46 42 39 39 39 38 37 38 36 34 30
7 8 8 8 9 9 10 10 10 10 10 10 10 10 10 10 10 10 10 10 9 9 8 8 8 8 8 8 8 8 8 8 8 8 7 7 7 6 6 6 5 5 5 5 5 5 5 5 4 4 4 4 4 4 4 3 3 3 3 3 3 4 4 4 4 4 4 4 4 4 4 4 4 5 6 7 8 10 13 18 22 27 32 38 45 54 66 72 70 64 56 52 50 47 45 42 40 38 36 36 36 35 33
6 7 7 8 8 8 8 9 9 10 10 10 10 10 10 10 10 10 10 10 10 9 9 8 8 8 8 8 8 8 8 8 8 8 7 7 7 7 7 6 6 6 5 5 5 5 5 5 5 5 4 4 4 4 4 4 4 3 3 3 3 3 3 4 4 4 4 4 4 4 3 4 4 4 4 5 6 8 9 12 15 20 24 30 36 43 52 64 70 71 65 58 54 52 50 47 44 40 36 35 36 36 35
6 7 7 7 7 8 8 8 8 8 8 9 9 10 10 10 10 10 10 10 10 9 9 9 8 8 8 8 8 8 8 7 7 7 7 7 7 7 7 7 6 6 6 6 6 6 6 5 5 5 5 5 4 4 4 4 4 4 3 3 3 3 3 3 3 4 4 4 4 4 4 3 3 4 4 4 5 6 7 8 10 14 17 22 28 34 41 51 62 70 73 66 59 55 54 51 49 45 39 36 36 36 37
7 7 7 7 7 8 8 8 8 8 8 8 8 8 8 8 9 9 9 9 9 9 9 9 8 8 8 8 8 8 8 7 7 7 7 7 7 7 7 7 6 6 6 6 6 6 6 6 6 5 5 5 5 5 4 4 4 4 4 4 3 3 3 3 3 3 3 4 4 4 4 4 4 4 4 4 4 4 5 6 8 9 12 16 21 26 32 40 50 60 71 72 67 60 56 55 53 50 44 39 36 36 37
8 8 8 8 8 8 8 8 8 8 8 8 8 8 8 8 8 8 8 8 8 8 8 8 8 8 8 8 8 8 8 8 8 7 7 7 7 6 6 6 6 6 6 6 6 6 6 6 6 6 6 5 5 5 5 4 4 4 4 4 4 3 3 3 3 3 3 3 3 4 4 4 4 4 4 4 4 4 4 5 6 7 8 11 14 19 25 31 38 48 60 70 72 69 63 59 56 54 50 44 39 36 37
9 9 9 9 8 8 8 8 8 8 8 8 8 8 7 7 7 7 7 7 7 8 8 8 8 8 8 8 8 8 8 8 8 8 7 7 7 7 6 6 6 6 6 6 6 6 6 6 6 6 6 6 5 5 5 5 4 4 4 4 4 4 4 3 3 3 3 3 3 3 3 4 4 4 4 4 4 4 4 4 5 5 6 8 10 13 18 24 30 37 46 59 69 74 72 66 62 58 55 49 43 39 37
9 9 8 8 8 8 8 7 7 7 6 6 6 6 6 6 6 6 6 6 6 6 6 6 7 7 7 7 7 8 8 8 8 8 8 8 7 7 7 6 6 6 6 6 6 6 6 6 6 6 6 6 6 6 5 5 5 4 4 4 4 4 4 4 3 3 3 3 3 3 3 3 3 4 4 4 4 4 4 4 4 4 5 6 7 9 12 17 22 28 36 46 58 68 75 72 68 63 58 54 48 42 39
8 8 7 7 6 6 6 5 5 5 4 4 4 4 4 4 4 4 4 4 4 5 5 5 5 6 6 6 6 6 7 7 7 7 7 8 7 7 7 7 6 6 6 6 6 6 6 6 6 6 6 6 6 6 6 5 5 5 4 4 4 4 4 4 4 4 3 3 3 3 3 3 3 3 4 4 4 4 4 4 4 4 4 5 6 7 8 12 16 21 28 36 46 57 68 73 73 70 64 58 52 47 42
6 6 5 5 4 4 4 4 3 3 3 3 3 3 3 3 3 3 3 3 3 4 4 4 4 4 4 5 5 5 6 6 6 6 7 7 7 7 7 7 7 6 6 6 6 6 6 6 6 6 6 6 6 6 6 6 5 5 5 5 4 4 4 4 4 4 4 3 3 3 3 3 3 3 3 4 4 4 4 4 4 4 4 4 4 5 6 8 11 15 20 27 35 44 55 66 72 74 72 64 58 52 47
5 4 4 4 4 3 3 3 3 3 3 2 2 2 2 2 2 2 2 3 3 3 3 4 4 4 4 4 4 5 5 5 5 6 6 6 6 6 7 7 7 7 6 6 6 6 6 6 5 5 5 6 6 6 6 6 5 5 5 5 5 4 4 4 4 4 4 4 3 3 3 3 3 3 3 3 3 4 4 4 4 4 4 4 4 4 5 6 8 10 14 20 26 34 43 54 64 72 75 71 65 59 53
4 4 4 3 3 3 3 3 3 3 3 3 3 2 2 2 2 2 2 3 3 3 3 3 4 4 4 4 4 4 4 5 5 5 6 6 6 6 6 6 6 7 7 6 6 6 6 6 6 5 5 5 5 5 5 5 6 5 5 5 5 4 4 4 4 4 4 4 4 3 3 3 3 3 3 3 3 3 4 4 4 4 4 4 4 4 4 5 6 8 10 14 19 26 33 42 53 64 73 74 72 66 58
4 4 3 3 3 3 3 3 3 3 3 3 3 3 2 2 2 2 3 3 3 3 3 3 4 4 4 4 4 4 4 5 5 5 6 6 6 6 6 6 6 6 6 6 6 6 6 6 6 6 5 5 5 5 5 5 5 5 5 5 5 5 4 4 4 4 4 4 4 4 3 3 3 3 3 3 3 3 3 3 4 4 4 4 4 4 4 4 5 6 7 10 14 19 25 33 42 53 64 72 75 73 66
4 4 3 3 3 3 3 3 3 3 3 3 3 3 3 3 3 3 3 3 3 4 4 4 4 4 4 4 4 4 5 5 5 6 6 6 6 6 6 6 6 6 6 6 6 6 6 6 6 6 6 6 5 5 5 5 5 5 5 5 5 5 5 4 4 4 4 4 4 4 4 3 3 3 3 3 3 3 3 3 3 4 4 4 4 4 4 4 4 5 6 7 10 13 18 25 33 42 52 64 72 76 74
4 4 4 4 4 4 3 3 3 3 3 3 3 3 3 3 3 3 4 4 4 4 4 4 4 4 5 5 5 5 5 5 6 6 6 6 6 6 6 6 6 6 6 6 6 6 6 6 6 6 6 6 6 5 5 5 5 5 5 5 5 5 5 5 4 4 4 4 4 4 4 4 3 3 3 3 3 3 3 3 3 3 4 4 4 4 4 4 4 4 5 6 7 9 12 18 25 33 42 53 64 73 78
4 4 4 4 4 4 4 3 3 3 3 3 3 4 4 4 4 4 4 4 5 5 5 5 6 6 6 6 6 6 6 6 6 6 6 6 6 7 7 7 7 6 6 6 6 6 6 6 6 6 6 6 6 6 5 5 5 5 5 5 5 5 5 5 5 4 4 4 4 4 4 4 4 3 3 3 3 3 3 3 3 3 3 4 4 4 4 4 4 4 4 5 6 7 9 13 18 25 32 42 53 64 75
4 4 4 4 4 4 4 4 4 4 4 4 4 4 5 5 5 5 6 6 6 6 6 7 7 7 7 7 7 7 7 7 7 7 7 7 7 7 7 7 7 7 7 6 6 6 6 6 6 6 6 6 6 6 6 5 5 5 5 5 5 5 5 5 5 4 4 4 4 4 4 4 4 4 3 3 3 3 3 3 3 3 3 3 4 4 4 4 4 4 4 4 5 6 7 9 13 18 24 33 42 53 66
4 4 4 4 4 4 4 4 4 4 5 5 6 6 6 7 7 7 8 8 8 8 8 8 8 8 8 8 8 8 8 8 8 8 7 7 7 7 7 7 7 7 7 7 7 6 6 6 6 6 6 6 6 6 6 6 6 6 6 6 6 5 5 5 5 5 4 4 4 4 4 4 4 4 4 3 3 3 3 3 3 3 3 3 3 4 4 4 4 4 4 4 4 5 6 7 9 13 18 25 34 43 54
4 4 4 4 4 4 4 5 5 6 6 6 7 8 8 8 8 9 9 9 9 9 9 9 9 9 8 8 8 8 8 8 8 8 8 8 7 7 7 7 7 7 7 7 6 6 6 6 6 6 6 6 6 6 6 6 6 6 6 6 6 6 6 6 5 5 5 4 4 4 4 4 4 4 4 3 3 3 3 3 3 3 3 3 3 3 4 4 4 4 4 4 4 4 5 6 7 9 13 19 26 34 44
4 4 4 4 5 5 5 6 6 7 8 8 8 8 9 9 10 10 10 10 10 10 9 9 9 9 9 8 8 8 8 8 8 8 8 8 8 7 7 7 7 7 7 7 6 6 6 6 6 6 6 6 6 6 6 6 6 6 6 6 6 6 6 6 6 5 5 5 4 4 4 4 4 4 4 4 3 3 3 3 3 3 3 3 3 3 4 4 4 4 4 4 4 4 4 5 6 7 9 14 20 27 35
4 5 5 5 6 6 7 7 8 8 8 9 9 9 10 10 10 10 10 9 9 9 9 8 8 8 8 8 8 8 8 8 8 8 8 8 7 7 7 7 7 7 7 6 6 6 6 6 6 6 6 6 6 6 6 6 6 6 6 6 6 6 6 6 6 6 6 5 5 4 4 4 4 4 4 4 4 3 3 3 3 3 3 3 3 3 3 4 4 4 4 4 4 4 4 4 5 6 7 10 15 21 28
5 6 6 6 7 8 8 8 9 9 10 10 10 9 9 9 9 8 8 8 8 8 8 8 8 8 8 8 8 7 7 7 7 7 7 7 7 7 7 7 7 7 6 6 6 6 6 6 6 6 6 6 6 6 6 6 6 6 6 6 6 6 6 6 6 6 6 6 5 5 4 4 4 4 4 4 4 4 3 3 3 3 3 3 3 3 3 3 4 4 4 4 4 4 4 4 4 5 6 8 11 16 22
6 6 7 8 8 8 9 9 9 9 9 9 8 8 8 8 8 8 8 7 7 7 7 7 7 7 7 7 7 7 7 7 6 6 6 6 6 6 6 6 6 6 6 6 6 6 6 6 6 6 6 6 6 6 6 6 6 6 6 6 6 6 6 6 6 6 6 6 6 5 5 4 4 4 4 4 4 4 4 3 3 3 3 3 3 3 3 3 4 4 4 4 4 4 4 4 4 4 5 6 8 12 16
7 8 8 8 9 9 9 9 9 8 8 8 8 8 7 7 7 7 7 6 6 6 6 6 6 6 6 6 6 6 6 6 6 6 6 6 6 6 6 6 6 6 6 6 6 6 6 6 6 6 6 6 6 6 6 6 6 6 6 6 6 6 6 6 6 6 6 6 6 6 5 5 4 4 4 4 4 4 4 4 3 3 3 3 3 3 3 4 4 4 4 4 4 4 4 4 4 4 4 5 6 8 12
8 8 9 9 9 9 9 8 8 8 8 7 7 7 7 6 6 6 6 6 6 6 6 6 6 6 6 6 6 6 6 6 6 6 6 6 6 6 6 6 6 6 6 6 6 6 6 6 6 6 6 6 6 6 5 5 5 5 5 6 6 6 6 6 6 6 6 6 6 6 6 5 5 4 4 4 4 4 4 4 3 3 3 3 3 3 3 3 4 4 4 4 4 4 4 4 4 4 4 4 5 7 9
8 9 9 9 8 8 8 8 7 7 7 7 7 6 6 6 6 6 6 6 6 6 6 6 6 6 6 6 6 6 6 6 6 6 6 6 6 6 6 6 6 6 6 6 6 6 6 6 5 5 5 5 5 5 5 5 5 5 5 5 5 6 6 6 6 6 6 6 6 6 6 6 6 5 4 4 4 4 4 4 4 3 3 3 3 3 3 3 4 4 4 4 4 4 4 4 4 4 4 4 5 6 7
9 9 8 8 8 8 7 7 7 7 7 7 7 6 6 6 6 6 6 6 6 6 6 5 5 5 5 5 5 5 5 5 5 5 6 6 6 6 6 6 6 6 6 6 5 5 5 5 5 5 5 5 5 5 5 5 5 5 5 5 5 5 5 5 5 6 6 6 6 6 6 6 6 6 5 4 4 4 4 4 4 3 3 3 3 3 3 3 4 4 4 4 4 4 4 4 4 4 4 4 4 5 6
9 8 8 8 7 7 7 7 7 7 7 7 6 6 6 6 6 5 5 5 5 4 4 4 4 4 4 4 4 4 4 4 5 5 5 5 5 5 5 5 5 5 5 5 5 5 5 5 5 5 5 5 5 5 5 5 5 5 5 5 5 5 5 5 5 5 5 5 6 6 6 6 6 6 6 5 4 4 4 4 4 4 3 3 3 3 3 3 3 4 4 4 4 4 4 4 4 4 4 4 4 4 5
8 8 8 7 7 7 7 7 7 7 6 6 6 6 5 5 5 4 4 4 4 4 4 4 4 4 4 4 4 4 4 4 4 4 4 4 4 4 4 5 5 5 5 5 5 5 5 5 5 5 5 5 5 5 5 5 5 5 5 5 5 5 5 5 5 5 5 5 5 6 6 6 6 6 6 6 5 4 4 4 4 4 4 3 3 3 3 3 3 4 4 4 4 4 4 4 4 5 5 5 4 4 4
8 7 7 7 7 7 7 7 7 6 6 6 5 5 4 4 4 4 4 4 4 4 4 4 4 4 4 4 4 4 3 3 3 3 4 4 4 4 4 4 4 4 4 5 5 5 5 5 5 5 5 5 5 5 5 5 5 5 5 5 5 5 5 5 5 5 5 5 5 5 5 6 6 6 6 6 5 5 4 4 4 4 4 4 3 3 3 3 3 3 4 4 4 4 4 4 5 5 5 5 5 4 4
7 7 7 7 7 7 7 6 6 6 5 5 4 4 4 4 4 4 4 4 4 4 4 4 4 4 4 4 4 4 4 4 4 4 4 4 4 4 4 4 4 4 4 4 4 4 5 5 5 5 5 5 5 5 5 5 5 5 5 5 5 5 5 5 5 5 5 5 5 5 5 5 6 6 6 6 6 5 5 4 4 4 4 4 4 3 3 3 3 3 3 4 4 4 4 4 5 5 5 5 5 5 4
7 8 8 8 7 7 6 6 5 5 4 4 4 4 4 4 4 5 5 5 5 5 6 6 6 6 6 5 5 5 5 5 4 4 4 4 4 4 4 4 3 3 4 4 4 4 4 4 4 5 5 5 5 5 5 5 5 5 5 4 4 4 4 4 4 5 5 5 5 5 5 5 5 6 6 6 6 6 5 5 4 4 4 4 4 4 4 3 3 3 3 4 4 4 4 4 5 5 5 5 5 5 5
8 8 8 7 7 6 6 5 5 4 4 4 4 5 5 5 5 6 6 6 6 6 6 6 6 6 6 6 6 6 6 6 6 5 5 5 4 4 4 4 4 4 3 3 3 4 4 4 4 4 4 4 4 5 5 5 5 5 4 4 4 4 4 4 4 4 4 4 4 5 5 5 5 5 6 6 6 6 6 6 5 5 4 4 4 4 4 4 3 3 3 3 4 4 4 5 5 5 5 5 5 5 5
8 8 7 7 6 6 5 5 4 4 4 5 5 6 6 6 6 6 6 6 6 6 6 6 6 6 6 6 6 6 6 6 6 6 6 6 6 5 5 4 4 4 4 4 4 3 3 4 4 4 4 4 4 4 4 4 4 4 4 4 4 4 4 4 4 4 4 4 4 4 4 4 5 5 5 6 6 6 6 6 6 5 5 4 4 4 4 4 4 4 4 4 4 4 4 5 5 5 5 5 6 6 5
8 7 7 6 6 5 5 5 5 5 5 6 6 6 6 6 6 6 6 6 6 6 6 6 6 6 6 6 6 6 6 6 6 6 6 6 6 6 6 5 5 5 4 4 4 4 4 3 3 4 4 4 4 4 4 4 4 4 4 4 4 4 4 4 4 4 4 4 4 4 4 4 4 5 5 5 6 6 6 6 6 6 5 5 4 4 4 4 4 4 4 4 4 4 4 5 5 5 5 6 6 6 6
8 7 6 6 5 5 5 5 6 6 6 6 7 7 7 6 6 6 6 6 6 6 6 6 6 6 6 6 6 6 6 6 6 7 7 7 7 6 6 6 6 6 5 5 4 4 4 4 4 4 4 4 4 4 4 4 4 4 4 4 4 4 4 4 4 4 4 4 4 4 4 4 4 4 5 5 5 6 6 6 6 6 6 5 5 4 4 4 4 4 4 4 4 4 4 5 5 5 6 6 6 6 6
7 6 6 6 5 5 6 6 6 7 7 7 7 7 7 6 6 6 6 6 6 6 6 6 6 6 6 6 6 6 6 6 6 6 7 7 7 7 7 7 6 6 6 6 5 5 4 4 4 4 4 4 4 4 4 4 4 4 4 4 4 4 4 4 4 4 4 4 4 4 4 4 4 4 4 5 5 6 6 6 6 6 6 6 5 5 5 4 4 4 4 4 4 4 4 4 5 5 6 6 6 6 6
6 6 6 6 6 6 6 7 7 7 8 7 7 7 7 7 6 6 6 6 6 6 5 5 5 5 5 5 5 5 5 5 6 6 6 6 7 7 7 7 7 7 6 6 6 6 5 5 4 4 4 4 4 4 4 4 4 4 4 4 4 4 4 4 4 4 4 4 4 4 4 4 4 4 4 4 5 5 6 6 6 6 6 6 6 5 5 5 4 4 4 4 4 4 4 4 5 5 6 6 6 6 6
6 6 6 6 6 7 7 8 8 8 8 8 7 7 7 7 6 6 6 5 5 5 5 5 5 5 5 5 5 5 5 5 5 5 6 6 6 7 7 8 8 8 7 7 7 6 6 5 5 5 5 4 4 4 4 4 4 4 3 3 3 4 4 4 4 4 4 4 4 4 4 4 4 4 4 4 4 5 5 6 6 6 6 6 6 6 5 5 5 4 4 4 4 4 4 4 5 5 6 6 6 6 7
6 6 6 7 7 8 8 8 8 8 8 8 7 7 7 6 6 5 5 5 5 5 5 5 5 5 5 5 5 5 5 4 4 5 5 5 6 6 7 7 8 8 8 8 8 7 7 6 6 6 5 5 5 4 4 4 4 4 3 3 3 3 3 3 3 4 4 4 4 4 4 4 4 4 4 4 4 5 5 5 6 6 6 6 6 6 6 5 5 5 4 4 4 4 4 5 5 5 6 6 6 7 7
7 7 7 8 8 8 9 8 8 8 8 8 7 7 6 6 5 5 5 5 6 6 6 6 6 6 6 6 6 6 6 5 5 5 4 5 5 6 6 7 8 8 8 8 8 8 8 7 6 6 6 6 6 5 5 5 4 4 4 3 3 3 3 3 3 3 3 3 4 4 4 4 4 4 4 4 4 4 5 5 6 6 6 6 6 6 6 6 6 5 5 5 4 4 5 5 5 6 6 6 7 7 8
7 8 8 8 9 9 9 8 8 8 8 8 7 6 5 5 5 5 6 6 7 7 7 7 7 7 7 7 7 7 6 6 6 5 5 5 5 5 5 6 7 8 8 8 9 9 8 8 8 7 7 7 6 6 6 5 5 4 4 4 3 3 3 3 3 3 3 3 3 4 4 4 4 4 4 4 4 4 5 5 5 6 6 6 7 7 6 6 6 6 6 5 5 5 5 6 6 6 6 7 7 8 8
8 8 9 10 10 10 9 9 8 8 8 7 6 5 5 5 6 6 7 8 8 8 8 8 8 8 8 8 8 7 7 7 6 6 6 5 5 5 5 5 6 7 8 9 10 10 10 10 9 8 8 8 8 7 6 6 5 5 4 4 4 3 3 3 3 3 3 3 3 3 3 4 4 4 4 4 4 4 4 5 5 6 6 6 7 7 7 6 6 6 6 6 6 5 6 6 6 6 6 7 7 8 8
9 10 10 10 10 10 10 9 8 8 8 6 6 5 5 6 7 8 8 8 8 8 8 8 9 9 9 8 8 8 8 8 7 7 6 6 5 5 5 5 6 6 8 9 10 10 11 11 10 10 10 9 8 8 7 6 6 5 4 4 4 4 3 3 3 3 3 3 3 3 3 3 3 4 4 4 4 4 4 5 5 5 6 6 7 7 7 7 7 6 6 6 6 6 6 6 6 7 7 7 7 8 8
10 10 11 11 10 10 10 10 9 8 7 6 5 5 6 7 8 8 9 9 9 10 10 10 10 10 10 10 10 9 9 8 8 7 6 6 6 5 5 5 5 6 7 8 10 12 13 13 13 12 11 10 9 8 8 7 6 5 5 4 4 4 4 3 3 3 3 2 2 2 2 3 3 3 4 4 4 4 4 5 5 5 6 6 6 7 7 7 7 7 7 6 6 6 6 6 7 7 7 7 8 8 8
11 11 12 11 11 10 10 10 9 8 6 5 5 6 8 8 9 10 10 10 10 10 10 10 10 11 11 11 11 10 10 9 8 8 7 6 6 6 5 5 5 5 6 8 10 12 14 15 15 14 12 11 10 8 8 7 6 6 5 5 4 4 4 4 3 3 3 3 2 2 2 2 2 3 3 4 4 4 4 4 5 5 5 6 6 7 7 8 8 7 7 7 7 7 7 7 7 8 8 8 8 8 8
12 12 12 12 12 11 10 10 9 8 6 5 6 7 8 10 10 10 10 11 11 11 12 12 12 13 13 12 12 11 10 9 8 8 7 7 6 6 6 5 5 5 6 8 10 13 16 16 16 14 13 11 10 10 8 8 7 6 5 5 5 4 4 4 4 3 3 3 3 2 2 2 2 2 3 3 4 4 4 4 4 5 5 6 6 7 7 8 8 8 8 7 7 7 7 7 8 8 8 8 8 8 8
12 13 13 12 12 12 11 10 9 7 5 5 6 8 10 10 10 11 11 12 12 13 14 15 16 16 15 14 12 10 8 8 7 6 6 6 6 6 6 5 5 5 5 7 10 14 18 18 17 16 14 12 11 10 10 8 8 6 6 5 5 5 5 4 4 4 3 3 3 2 2 2 2 2 2 3 3 4 4 4 4 5 5 5 6 7 7 8 8 8 8 8 8 8 8 8 8 8 8 8 8 8 8
13 14 14 14 13 12 12 10 8 7 5 6 7 9 10 11 12 12 12 13 14 15 16 18 19 20 18 15 12 9 7 5 4 4 4 4 5 5 6 6 5 5 5 6 9 13 18 19 18 17 15 14 12 12 10 10 8 7 6 6 6 6 5 5 5 4 4 3 3 3 2 2 2 2 2 2 3 3 4 4 4 4 5 5 6 6 7 8 8 8 8 8 8 8 8 8 8 8 9 9 9 9 9
14 14 15 14 14 13 12 10 8 6 5 6 8 10 11 12 13 14 14 16 17 18 20 22 23 23 22 18 14 10 6 4 3 2 2 3 3 4 5 5 6 6 5 6 8 12 18 20 20 18 17 16 14 13 12 10 9 8 7 6 6 6 6 6 5 5 4 4 3 3 3 2 2 2 2 2 2 2 3 3 4 4 4 5 5 6 7 8 8 8 8 8 8 8 8 8 8 9 9 10 10 10 10
15 16 16 16 15 14 12 10 8 6 5 7 8 11 12 13 14 15 16 18 20 22 24 25 26 27 26 22 18 13 8 6 4 3 2 2 2 3 4 4 5 6 6 6 7 10 16 21 22 21 19 18 16 15 14 12 10 9 8 7 7 7 6 6 6 5 5 4 4 4 3 3 2 2 2 2 2 2 2 3 3 4 4 4 5 6 6 7 8 8 8 8 8 8 8 8 9 9 10 10 10 10 10
16 16 17 16 16 14 13 10 8 6 6 7 10 12 14 15 16 17 18 20 22 24 27 28 30 30 30 28 24 19 14 10 6 4 3 3 3 2 3 4 5 6 6 6 6 9 13 19 23 23 21 19 18 16 15 13 12 10 8 8 7 7 7 7 6 6 5 5 4 4 3 3 3 2 2 2 2 2 2 2 3 3 4 4 4 5 6 6 8 8 8 8 8 8 8 9 9 9 10 10 10 10 10
16 18 18 18 16 15 14 10 8 6 6 8 10 13 15 16 18 19 21 23 26 28 30 31 32 34 34 33 30 26 22 16 11 6 4 4 3 3 2 3 4 5 6 6 6 8 12 18 22 24 24 22 20 18 16 15 13 11 10 8 8 8 8 8 7 7 6 6 5 4 4 4 3 3 2 2 2 2 2 2 2 3 3 4 4 5 5 6 7 8 8 8 8 8 8 9 9 9 10 10 10 10 10
18 18 19 18 18 16 14 11 8 6 6 8 11 14 16 18 20 21 24 26 28 31 33 34 36 37 37 37 36 33 30 25 18 12 6 5 4 3 3 3 4 5 6 6 7 8 10 16 22 26 26 25 23 20 18 16 14 12 11 10 9 8 8 8 8 7 7 6 6 5 4 4 4 3 3 2 2 2 2 2 2 2 3 3 4 4 5 6 6 7 8 8 8 8 8 8 9 9 10 10 10 10 10
18 19 20 20 18 17 15 11 8 6 6 8 11 14 17 19 21 23 26 28 32 35 37 38 39 40 40 40 40 39 38 34 28 20 12 8 6 4 3 3 4 5 6 6 7 8 10 15 20 26 28 27 26 24 21 18 16 14 12 11 10 10 10 9 8 8 7 7 6 6 5 4 4 4 3 3 2 2 2 2 2 2 3 3 3 4 4 5 6 6 7 8 8 8 8 8 9 9 10 10 10 10 11
19 20 21 21 20 18 16 12 9 7 6 9 12 15 18 20 22 24 27 32 35 39 41 42 42 42 43 44 44 44 44 42 39 33 24 16 10 6 3 4 4 5 6 7 7 8 9 14 19 24 29 29 28 26 23 21 19 17 14 13 12 11 10 10 10 9 8 7 7 6 6 5 4 4 4 3 3 2 2 2 2 2 2 3 3 3 4 4 5 6 6 7 8 8 8 8 8 9 10 10 10 11 11
Wind_Speed
55 55 55 56 56 56 56 56 57 57 57 58 58 58 58 59 59 59 59 60 60 60 60 61 61 61 61 62 62 62 62 62 61 61 61 61 61 61 61 61 61 61 61 61 61 60 60 60 60 60 60 61 61 61 61 60 60 60 60 59 59 58 58 58 58 58 58 58 58 59 59 59 58 58 57 56 54 52 50 48 46 45 45 45 45 45 44 45 45 45 44 44 43 43 42 42 41 41 42 42 43 43 43
57 57 57 57 58 58 58 58 59 59 59 59 59 59 60 60 60 60 61 61 61 61 62 62 62 62 63 63 63 63 63 63 63 63 63 63 62 62 62 62 62 62 62 62 62 62 61 61 61 61 61 61 61 61 62 62 61 61 61 61 60 60 59 59 59 58 58 58 58 59 59 59 59 59 59 58 57 55 53 51 49 47 46 46 46 47 46 46 46 46 46 45 44 44 44 43 42 42 42 42 43 43 43
59 59 59 59 60 60 60 60 61 61 61 61 61 61 61 61 62 62 62 62 62 62 63 63 63 64 64 64 65 65 65 65 65 65 65 65 64 64 64 64 64 64 64 64 63 63 63 63 62 62 62 62 62 62 62 62 62 62 62 62 62 61 61 60 60 59 59 59 59 59 59 60 60 60 60 60 59 58 57 55 52 50 48 47 47 47 47 47 47 47 47 47 46 46 45 45 44 43 43 43 43 43 43
61 61 61 62 62 62 62 62 63 63 63 63 64 64 64 64 64 64 64 64 64 64 64 64 64 64 65 65 66 66 66 66 66 66 66 67 66 66 65 65 65 65 65 65 65 65 64 64 64 63 63 63 63 63 63 63 63 63 63 63 63 63 63 62 62 61 60 60 59 59 59 60 60 60 61 61 61 60 59 58 56 53 50 48 48 48 49 48 48 48 48 48 48 47 46 46 45 45 44 44 44 44 44
63 63 63 64 64 64 64 64 65 65 65 65 66 66 66 66 66 66 66 66 66 66 66 66 66 66 66 66 67 67 68 68 68 68 68 68 68 68 68 67 67 66 66 67 67 66 66 66 65 65 65 64 64 64 64 64 64 64 64 64 64 64 64 64 63 62 62 61 61 60 60 60 60 60 61 61 61 61 61 60 58 56 54 52 50 49 49 49 49 49 49 49 49 49 48 48 47 46 46 45 45 45 45
65 65 65 65 66 66 66 66 67 67 67 67 67 68 68 68 68 68 68 69 69 68 68 68 68 68 68 68 68 68 69 69 69 70 70 70 70 70 70 70 69 68 68 68 68 68 68 68 67 67 66 66 66 66 66 65 65 65 65 65 65 65 65 65 64 64 63 63 62 62 61 61 61 61 61 61 61 62 62 61 60 59 57 55 53 51 50 50 50 50 50 50 50 50 50 49 48 47 47 46 46 46 45
66 66 67 67 67 68 68 68 68 68 69 69 69 69 70 70 70 70 71 71 71 71 71 71 71 71 70 70 70 70 70 70 71 71 71 71 72 72 72 72 71 71 70 70 70 70 70 69 69 69 68 68 68 67 67 67 67 66 66 66 66 66 66 66 65 65 65 65 64 64 63 62 62 61 61 61 61 62 62 62 61 61 60 58 57 54 52 50 50 51 51 51 51 51 51 50 50 49 48 48 47 47 46
67 67 68 68 69 69 69 70 70 70 70 71 71 71 72 72 72 72 73 73 73 73 74 74 74 74 73 73 73 73 72 72 72 73 73 73 73 73 73 74 73 73 72 72 71 71 71 71 71 70 70 70 69 69 69 69 68 68 68 67 67 66 66 66 66 66 66 66 66 65 64 64 63 62 62 62 61 62 62 62 62 62 61 60 59 58 56 53 51 51 51 51 51 51 51 51 51 50 50 49 49 48 47
68 68 69 69 70 70 71 71 71 72 72 73 73 73 74 74 74 75 75 75 75 76 76 76 76 76 76 76 76 76 75 75 75 75 75 75 75 75 75 75 75 75 75 74 74 73 73 73 72 72 72 72 71 71 71 70 70 70 69 69 68 68 67 67 67 67 68 67 67 67 66 65 65 64 63 63 62 62 62 62 62 62 62 62 61 61 59 57 54 52 51 51 52 52 52 52 51 51 51 51 50 49 48
68 69 69 70 71 71 72 72 73 73 74 74 75 75 76 76 77 77 77 78 78 78 78 78 79 79 79 79 79 79 78 78 78 78 77 77 77 77 77 77 77 77 77 76 76 76 75 74 74 74 74 73 73 73 72 72 72 71 71 71 70 70 69 69 69 68 69 68 68 68 67 67 66 65 65 64 63 63 62 62 62 62 62 62 62 62 61 60 58 55 53 52 52 52 52 52 52 52 52 52 52 51 50
69 70 70 71 72 72 73 74 74 75 75 76 77 77 78 79 79 80 80 80 81 81 81 81 81 81 81 81 81 81 81 81 81 80 80 80 80 79 79 79 79 78 78 78 78 78 77 76 76 75 75 75 75 75 74 74 73 73 73 72 72 72 71 70 70 70 70 69 69 69 69 68 67 67 66 66 65 64 63 63 63 63 63 63 63 63 63 62 61 59 56 54 53 52 53 53 53 53 53 53 53 53 52
70 71 71 72 73 73 74 75 76 76 77 78 79 79 80 81 81 82 83 83 83 83 83 84 84 84 84 84 83 83 83 83 83 83 83 83 82 82 82 81 81 81 80 80 80 80 79 79 78 77 77 77 77 76 76 76 75 75 74 74 74 73 73 72 72 72 71 71 71 70 70 69 69 68 68 67 67 66 65 64 64 63 63 63 63 63 63 63 63 62 60 57 55 54 53 54 54 53 54 54 54 54 53
71 72 73 73 74 75 76 77 78 78 79 80 81 82 83 83 84 85 85 86 86 86 86 87 87 87 86 86 86 86 85 85 85 85 85 85 85 84 84 84 83 83 83 82 82 82 81 81 80 79 78 78 78 78 78 77 77 76 76 76 76 75 75 74 74 73 73 72 72 71 71 71 70 69 69 69 68 68 67 66 65 65 64 64 64 64 64 64 64 63 62 61 58 56 55 54 54 54 55 55 55 55 55
73 74 75 75 76 77 78 79 80 81 82 83 84 85 86 86 87 88 88 89 89 90 90 90 90 90 90 89 89 89 88 88 87 87 87 87 87 87 86 86 86 85 85 85 84 84 84 83 82 81 81 80 80 79 79 79 79 78 78 77 77 77 77 76 76 75 75 74 73 73 72 72 71 71 70 70 70 69 69 68 67 66 65 65 64 64 64 64 64 64 64 63 62 60 57 56 55 55 55 56 56 56 56
75 76 77 78 79 80 81 82 84 85 86 87 88 89 90 91 91 92 93 93 93 93 94 94 93 93 93 93 92 92 91 91 90 90 89 89 89 89 88 88 88 88 88 87 87 86 86 85 84 84 83 82 81 81 80 80 80 80 79 79 79 79 78 78 77 77 76 76 75 75 74 73 73 72 72 71 71 71 70 70 69 68 67 66 65 65 65 64 64 64 65 65 64 63 61 59 57 56 55 56 56 56 56
78 79 80 82 83 84 85 87 88 89 90 92 93 94 95 95 96 97 97 98 98 98 98 98 98 97 97 96 96 95 95 94 93 93 92 92 91 91 90 90 90 90 90 89 89 89 88 87 87 86 85 85 84 83 82 81 81 81 81 80 80 80 80 80 79 79 78 77 77 76 76 75 75 74 74 73 72 72 71 71 70 70 69 68 67 66 65 65 65 65 65 66 66 65 64 62 60 57 56 55 56 57 57
80 82 83 85 86 88 89 91 92 94 95 96 97 98 99 100 101 101 102 102 102 102 102 102 102 101 101 100 100 99 98 97 96 96 95 94 94 93 93 92 92 91 91 91 91 91 90 90 89 88 88 87 86 85 84 83 82 82 82 82 82 81 81 81 81 80 80 79 78 78 77 77 76 76 75 75 74 73 73 72 72 71 70 69 68 67 67 66 66 66 66 66 67 67 66 65 63 60 58 56 56 57 57
83 85 86 88 90 91 93 95 96 98 99 100 102 102 103 104 105 105 106 106 106 106 106 106 106 105 105 104 103 102 101 100 99 98 98 97 96 96 95 94 94 93 93 93 93 92 92 92 91 91 90 90 89 88 87 85 84 83 83 83 83 83 83 82 82 82 81 81 80 80 79 78 78 77 77 76 75 75 74 73 73 72 72 71 70 69 68 68 67 66 66 67 67 67 67 67 66 64 61 58 57 56 57
85 87 89 91 93 95 96 98 100 101 103 104 105 106 107 108 108 109 109 109 109 109 109 109 108 108 108 107 106 106 105 104 102 101 100 99 98 98 97 96 96 95 95 94 94 94 93 93 93 93 92 92 91 90 89 88 87 85 85 84 84 84 84 84 83 83 83 82 82 81 81 80 80 79 78 78 77 76 76 75 74 74 73 72 72 71 70 69 68 68 67 67 67 68 68 68 68 66 64 62 59 57 57
88 90 92 94 96 97 99 101 102 104 105 106 107 108 109 110 111 111 112 112 112 112 111 111 110 110 109 109 108 108 107 106 105 104 103 102 101 100 99 98 98 97 97 96 96 95 95 95 94 94 94 94 93 93 92 91 89 88 87 86 86 86 85 85 85 84 84 84 83 83 82 82 81 80 80 79 79 78 77 77 76 75 75 74 73 73 72 71 70 69 68 68 68 68 68 69 69 68 67 65 62 59 57
91 93 95 96 98 100 101 103 104 105 106 108 109 110 110 111 112 112 113 113 113 113 113 113 112 112 111 110 110 109 109 108 107 107 106 105 103 102 101 100 99 99 98 98 97 97 96 96 96 95 95 95 95 95 94 93 92 91 89 88 87 87 87 86 86 86 85 85 85 84 84 83 82 82 81 81 80 80 79 79 78 77 76 75 75 74 73 73 72 71 70 69 69 68 69 69 69 69 69 68 65 63 60
94 95 97 99 100 102 103 104 106 107 108 109 109 110 111 111 112 112 113 113 113 113 113 113 113 113 112 112 111 110 110 109 108 108 107 106 105 104 103 102 101 101 100 99 99 98 98 97 97 96 96 96 96 96 96 95 94 93 92 91 90 89 88 88 88 87 87 86 86 86 85 85 84 83 83 82 82 81 81 80 80 79 78 77 76 75 75 74 73 73 72 71 70 69 69 69 70 70 70 69 68 66 63
96 98 99 101 102 103 105 106 107 108 109 109 110 110 111 111 111 112 112 112 113 113 113 113 113 113 112 112 111 111 110 110 109 108 108 107 107 106 105 104 103 103 102 101 100 100 99 99 98 97 97 97 97 97 97 96 96 95 94 93 92 91 90 89 89 89 88 88 87 87 87 86 86 85 84 84 83 83 82 82 81 81 80 79 78 77 76 76 75 74 73 73 72 71 70 70 70 70 70 70 70 68 66
98 100 101 103 104 105 106 107 108 109 109 110 110 110 111 111 111 111 111 112 112 112 112 112 112 112 112 111 111 111 110 109 109 108 108 107 107 106 106 105 105 104 104 103 102 102 101 100 100 99 98 98 98 98 97 97 97 96 96 95 95 94 92 91 90 90 90 89 89 88 88 88 87 86 86 85 85 84 84 83 83 82 81 81 80 79 78 77 77 76 75 74 73 72 72 71 70 70 70 71 71 70 69
100 101 103 104 105 106 107 108 109 109 110 110 110 110 110 111 110 110 110 110 110 110 110 110 110 110 110 109 109 109 109 109 108 108 108 107 106 106 106 106 105 105 105 104 104 103 102 102 101 101 100 99 99 98 98 98 98 97 97 96 96 96 95 93 92 91 91 91 90 90 89 89 89 88 87 87 86 85 85 85 84 84 83 82 81 81 80 79 78 77 77 76 75 74 73 72 71 71 71 71 71 72 71
102 103 104 106 106 107 108 109 109 109 109 110 110 109 109 110 109 109 109 108 108 108 108 108 108 108 108 107 107 107 107 107 107 107 107 106 106 105 105 105 105 105 105 105 105 104 104 103 103 102 102 101 100 100 99 99 98 98 98 97 97 97 97 96 94 93 92 92 92 91 91 90 90 90 89 88 88 87 86 86 85 85 85 84 83 82 81 80 80 79 78 77 77 76 75 74 72 71 71 71 72 72 72
104 105 106 107 107 108 109 109 109 109 109 109 108 108 108 107 107 107 106 106 105 105 104 104 104 104 104 104 104 105 105 104 104 104 105 104 104 104 104 104 104 104 104 104 105 105 104 104 104 103 103 103 102 101 100 100 99 99 98 98 98 98 98 97 96 95 94 93 93 93 92 92 92 91 91 90 89 89 88 87 87 86 86 86 85 84 83 82 81 80 80 79 78 78 77 75 74 73 72 72 72 73 73
105 106 107 108 108 109 109 109 109 108 108 107 106 105 105 104 103 103 102 102 102 101 101 100 100 100 100 100 100 101 101 101 101 101 102 102 102 102 102 102 102 102 103 103 104 104 104 104 104 104 104 103 103 102 102 101 101 100 99 99 99 99 99 99 98 97 96 95 94 94 94 94 93 93 92 92 91 90 89 89 88 88 87 87 86 86 85 84 83 82 81 80 80 79 78 77 76 74 73 73 73 73 73
106 107 108 108 109 109 108 108 108 107 106 104 103 102 101 100 99 98 98 97 97 96 96 96 96 95 95 95 96 96 97 97 97 97 98 98 98 99 99 99 100 100 101 101 102 102 103 103 103 104 104 104 104 104 103 103 102 101 101 100 100 99 100 100 99 99 98 97 96 95 95 95 95 94 94 93 93 92 91 90 90 89 88 88 87 87 86 85 85 84 83 82 81 80 80 79 77 76 75 74 74 74 74
108 108 108 109 108 108 107 106 105 104 103 101 99 97 96 94 93 92 91 91 90 90 90 90 90 90 90 90 90 90 91 92 92 92 93 94 94 95 95 96 96 97 97 98 99 100 101 101 102 102 103 103 103 104 104 104 103 103 102 101 101 100 100 100 100 100 99 98 97 97 96 96 96 96 95 95 94 94 93 92 91 90 89 89 88 88 87 87 86 85 85 84 83 82 81 80 79 78 77 76 75 74 74
108 109 108 108 108 107 105 104 102 100 98 96 94 92 91 89 87 86 85 85 84 84 84 84 85 85 85 85 85 85 86 86 86 87 88 89 89 90 91 92 92 93 94 95 96 97 98 99 99 100 101 102 102 103 103 104 104 103 103 102 102 101 101 101 101 101 101 100 99 98 97 97 97 97 97 96 96 95 94 94 93 92 91 90 89 89 89 88 88 87 86 85 84 83 82 81 80 79 78 77 76 75 75
108 108 108 107 106 104 102 100 97 95 93 91 89 87 86 84 83 82 82 81 80 80 81 81 81 81 81 81 81 82 82 82 82 83 84 84 85 85 86 87 88 89 90 91 92 93 94 95 96 97 99 99 100 101 102 103 103 104 103 103 103 102 102 102 102 102 102 101 101 100 99 98 98 98 98 97 97 96 96 95 94 93 92 91 91 90 90 89 89 89 88 87 86 84 83 82 82 81 80 79 78 77 76
107 107 106 104 102 100 98 95 92 90 88 86 85 84 83 82 81 81 80 80 79 79 79 79 79 80 80 80 80 80 80 80 80 81 81 81 81 82 83 83 84 85 86 87 87 89 90 91 92 94 95 96 98 99 100 101 102 103 103 103 103 103 103 103 103 103 103 103 102 101 100 100 99 99 99 99 98 98 97 97 96 95 94 93 92 91 91 91 90 90 89 88 87 86 85 84 83 82 81 80 79 78 77
105 104 103 101 98 95 93 90 88 86 85 84 83 82 82 82 82 81 81 80 80 80 79 79 79 79 79 79 79 79 79 79 79 79 80 80 80 80 81 81 81 82 83 83 84 85 86 87 88 90 92 93 94 96 98 99 100 101 102 102 103 103 103 103 104 104 104 104 103 103 102 101 100 100 100 100 99 99 98 98 97 97 96 95 94 93 92 92 91 91 91 90 89 88 87 86 85 84 83 82 81 80 79
103 101 99 96 93 91 88 86 85 84 83 83 83 83 83 83 83 82 82 81 81 80 79 79 79 78 78 78 78 78 78 78 78 78 78 79 79 79 79 80 80 81 81 81 81 82 83 83 84 86 88 89 90 92 94 96 97 99 100 101 102 102 103 103 104 104 105 105 105 104 103 103 102 101 101 101 100 100 100 99 98 98 98 97 96 95 94 93 93 92 92 91 90 89 88 87 86 85 84 83 82 81 80
99 96 94 91 89 87 85 84 83 83 83 84 84 84 84 84 83 83 82 81 80 80 79 78 77 77 77 77 76 77 77 77 77 77 77 77 77 78 78 78 79 79 79 79 80 80 80 80 81 83 84 85 87 89 91 92 94 96 97 99 100 101 102 103 103 104 105 105 105 105 105 104 103 103 102 102 101 101 101 100 100 99 99 98 98 97 96 95 94 93 93 92 92 91 90 89 88 87 86 85 84 83 82
94 92 89 87 85 84 84 83 83 84 84 85 85 84 84 84 83 82 82 81 80 79 78 77 77 76 76 75 75 75 75 75 75 75 75 76 76 76 76 77 77 78 78 78 79 79 79 79 80 81 81 82 83 85 87 89 90 92 94 96 98 99 100 102 103 104 104 105 106 106 106 106 105 104 103 103 102 102 102 101 101 101 100 100 99 98 97 96 95 94 94 93 93 92 92 91 90 89 88 87 86 85 84
90 87 85 84 83 83 83 84 84 84 85 85 84 84 84 83 83 82 81 81 80 80 79 78 77 77 76 75 75 75 74 74 74 74 74 74 74 74 74 75 75 75 76 77 77 78 77 78 79 79 80 80 81 82 83 85 86 88 91 93 95 97 98 100 101 103 104 105 106 106 107 107 106 106 105 104 103 103 103 103 102 102 102 101 101 100 99 98 97 96 95 94 94 94 93 93 92 91 89 88 87 86 85
86 84 83 83 83 83 84 84 84 84 84 84 84 83 83 83 82 82 82 82 81 81 81 80 79 78 77 77 76 75 75 74 74 74 73 73 72 72 73 73 73 73 74 75 75 76 76 77 78 78 79 79 80 80 81 82 83 85 87 89 91 94 96 98 99 101 102 104 105 106 107 107 107 107 106 105 105 104 104 104 104 103 103 102 102 102 101 100 99 97 96 96 95 95 95 94 93 92 91 90 89 88 87
84 82 82 83 83 84 84 84 84 84 83 83 83 83 83 83 83 83 84 84 84 84 84 83 82 81 80 79 78 77 77 76 75 74 74 73 72 72 72 72 71 71 72 73 73 74 75 76 76 77 77 78 79 80 80 80 81 82 84 86 88 90 93 95 97 99 101 102 104 106 107 107 108 107 107 107 106 106 105 105 105 105 104 104 103 103 102 102 100 99 98 97 97 96 96 96 95 94 93 92 90 89 88
82 82 82 83 83 84 84 84 83 83 82 82 82 83 83 84 85 85 86 86 86 86 86 86 85 84 83 82 81 80 79 78 77 76 75 74 73 72 72 71 70 70 70 71 71 72 73 74 75 75 76 77 78 79 79 79 80 81 82 83 85 87 89 92 94 96 99 101 103 105 106 107 108 108 108 108 108 107 107 106 106 106 105 105 105 104 104 103 102 101 100 99 98 98 97 97 97 96 95 94 92 91 90
82 82 83 83 84 83 83 83 82 82 82 82 82 83 84 85 86 87 88 88 87 87 87 86 85 85 84 83 82 81 80 79 79 78 77 76 75 73 72 71 70 69 69 69 70 70 71 72 73 74 75 76 77 77 78 79 79 80 81 81 83 84 86 89 91 93 96 99 101 103 105 106 107 108 109 109 109 109 108 108 107 107 107 106 106 105 105 104 104 103 102 100 99 99 98 98 98 98 97 95 94 93 92
82 82 83 83 83 83 82 81 81 81 81 82 83 84 86 87 87 88 87 86 85 84 83 83 82 82 81 81 80 80 79 79 79 79 78 78 76 75 73 72 70 69 69 68 68 69 70 70 71 72 73 74 75 76 77 78 79 79 80 81 82 83 84 86 88 90 93 96 99 101 103 105 106 108 109 110 110 110 110 109 109 108 108 108 107 107 106 106 105 104 103 102 101 100 99 99 99 99 98 97 96 95 93
82 82 83 82 82 81 81 80 80 81 82 83 85 86 87 87 86 85 83 82 80 79 78 77 76 76 76 76 76 76 76 76 77 77 78 78 77 76 75 73 71 70 69 68 68 68 68 69 69 71 72 73 73 74 76 76 77 78 79 80 81 82 83 84 85 88 90 93 96 99 102 104 105 107 109 110 111 111 111 111 110 110 109 109 108 108 107 107 106 106 105 104 102 101 101 100 100 100 100 99 98 96 95
82 82 82 81 80 80 80 80 80 81 83 84 86 86 86 84 82 79 77 75 74 72 71 71 70 70 70 71 71 71 72 72 73 74 75 76 76 76 76 74 73 71 69 68 67 67 67 68 68 69 70 71 72 73 74 75 76 77 78 79 80 81 81 82 84 86 88 91 94 97 99 102 104 107 109 110 111 112 112 112 112 111 110 110 110 109 109 108 108 107 106 105 104 103 102 102 101 101 101 101 100 98 97
82 82 81 80 79 79 79 80 81 83 84 85 85 84 82 79 76 73 71 69 68 67 66 66 66 65 66 66 66 67 67 68 69 70 71 72 74 75 75 75 74 72 70 68 67 67 66 67 67 68 69 71 72 72 73 73 74 76 76 77 78 79 80 81 83 84 86 89 91 94 97 100 103 106 108 110 111 113 113 113 113 113 112 111 111 110 110 109 109 108 108 107 105 104 104 103 103 103 103 102 101 100 99
82 81 80 79 79 79 80 81 82 84 85 85 83 80 77 73 71 68 66 65 64 63 63 63 63 63 63 63 63 64 64 65 65 66 67 68 70 71 73 74 74 73 71 69 67 66 66 66 67 68 69 70 71 72 72 73 73 74 74 75 77 78 78 80 82 83 85 86 88 91 94 98 102 105 108 110 112 113 114 114 114 114 113 113 112 112 111 110 110 109 109 108 107 106 105 105 105 105 105 104 103 102 101
81 80 79 78 78 79 80 82 84 85 85 83 80 76 72 69 67 65 64 63 62 62 62 62 62 62 62 62 62 62 62 62 63 63 63 64 65 67 69 71 72 72 71 70 68 66 65 66 66 67 69 70 71 72 72 72 72 72 72 73 74 75 76 78 80 82 83 85 86 89 92 96 100 103 106 109 111 113 114 115 115 115 115 114 113 113 112 112 111 111 110 110 109 108 107 107 106 106 106 106 105 104 103
80 79 78 78 78 79 81 83 85 85 83 80 76 72 69 66 65 63 63 62 62 61 61 61 61 62 62 62 61 61 61 61 61 61 61 61 62 63 65 68 70 71 71 70 68 66 65 65 66 68 69 71 72 72 72 72 71 70 70 71 71 72 74 76 78 80 81 83 85 87 90 93 97 101 105 108 111 113 114 116 116 116 116 116 115 114 114 113 113 112 112 111 110 110 109 108 108 107 107 107 106 105 104
79 78 78 78 79 80 82 84 85 84 81 76 72 69 66 65 63 62 62 61 61 61 61 61 61 60 60 59 59 59 58 59 59 59 58 59 59 60 61 63 66 69 70 70 68 66 66 66 67 69 70 72 72 72 71 70 69 69 68 68 69 70 72 74 75 77 79 81 83 86 88 91 95 98 102 106 109 112 114 116 117 117 117 117 116 116 115 115 114 113 113 113 112 111 110 110 109 109 108 108 107 107 105
78 77 77 78 80 81 83 85 85 82 78 73 69 67 65 63 62 61 61 60 60 61 61 60 59 58 57 56 55 55 55 55 55 55 55 56 56 56 57 59 62 65 68 69 68 67 67 67 69 70 71 72 72 71 70 69 68 67 67 67 68 68 70 71 72 74 76 78 81 84 87 89 92 96 100 104 108 111 114 116 117 118 118 118 118 117 117 116 116 115 114 114 113 113 112 111 110 110 109 109 109 108 107
77 77 77 79 80 82 84 85 83 80 75 71 67 65 63 62 61 61 60 60 60 61 61 60 58 57 55 53 52 51 50 50 51 51 52 53 53 53 54 56 58 61 65 67 67 68 69 69 70 71 71 70 70 69 68 68 67 67 67 66 66 66 67 68 69 71 73 76 79 82 84 87 90 94 97 101 105 109 113 115 117 118 119 119 119 119 118 118 117 116 116 115 115 114 113 113 112 111 111 111 110 109 108
77 77 78 79 81 83 84 84 82 78 73 69 66 64 62 61 61 60 60 61 61 61 60 59 57 56 54 51 49 48 46 45 46 47 48 49 49 49 50 51 54 57 62 64 67 68 70 70 70 70 69 68 68 68 68 67 67 66 66 65 65 65 65 66 66 68 70 72 75 78 81 85 88 91 95 99 103 107 111 114 116 118 119 120 120 120 120 119 118 118 117 117 116 115 115 114 113 113 112 112 111 111 109
76 77 78 79 81 83 84 83 80 75 71 67 65 63 62 61 60 60 61 61 61 61 59 58 56 55 53 51 48 46 44 42 42 42 43 44 44 45 45 47 50 54 58 62 65 68 70 71 70 69 68 67 67 67 67 67 66 66 65 65 65 64 64 64 64 65 67 69 72 75 78 81 85 89 92 96 100 104 108 112 115 117 119 120 121 121 121 120 120 119 119 118 118 117 116 116 115 114 114 113 113 112 111
76 76 78 79 82 83 84 82 78 73 69 66 64 62 61 60 60 60 61 61 61 60 58 56 55 53 52 50 48 45 42 40 39 38 38 39 40 40 41 43 46 50 54 59 64 68 70 70 69 68 66 66 66 66 66 66 66 66 65 65 64 64 63 63 63 63 64 66 69 71 74 78 82 86 90 94 98 102 105 109 113 115 118 119 121 121 121 121 121 121 120 120 119 118 118 117 116 115 115 114 114 113 112
75 76 77 79 81 83 83 81 76 72 68 65 63 62 61 60 60 60 60 60 59 58 56 54 53 51 50 49 47 44 42 39 38 36 35 35 35 36 37 38 40 44 49 55 62 67 69 69 68 66 66 65 65 66 66 66 66 66 65 65 64 63 62 62 62 62 62 64 65 67 70 74 78 82 86 91 95 99 103 106 110 113 116 118 120 121 122 122 122 122 121 121 120 120 119 118 118 117 116 115 115 114 113
75 75 77 79 81 82 82 79 75 71 67 64 62 61 60 59 59 59 59 59 58 56 54 52 51 50 49 47 46 44 42 39 37 35 33 32 32 32 33 34 37 40 45 52 59 65 68 68 66 65 65 65 65 65 66 66 66 65 65 64 64 63 62 61 61 60 61 61 62 64 67 70 74 78 82 87 91 96 100 104 107 111 114 116 118 120 121 122 122 122 122 122 121 121 120 120 119 118 117 116 116 115 114
74 75 77 79 81 82 81 78 74 69 66 63 61 60 58 58 57 57 57 57 55 54 52 51 50 48 47 46 44 43 41 39 37 34 32 30 30 29 30 31 33 37 42 49 55 61 66 66 66 65 65 63 64 65 65 65 65 65 64 64 63 62 61 61 60 59 59 59 60 61 63 66 70 74 78 83 87 92 97 101 104 108 111 114 116 119 120 121 122 123 122 122 122 122 121 121 120 119 118 117 116 115 115
74 75 76 78 80 81 80 77 72 68 65 62 60 59 57 56 55 56 55 55 53 52 50 49 48 47 46 45 44 42 41 39 37 34 31 28 27 27 27 27 29 32 37 44 51 57 63 64 65 65 63 62 62 64 64 64 64 64 63 63 63 62 61 60 59 59 58 58 58 59 61 63 66 69 73 78 83 88 93 97 101 105 108 111 114 116 119 120 121 122 122 122 122 122 122 122 121 120 119 117 117 116 115
73 74 76 78 79 80 79 76 71 67 64 61 59 57 55 54 53 53 53 53 51 50 49 48 47 46 45 44 44 43 41 40 37 35 31 28 25 24 23 23 25 28 33 39 46 53 59 63 65 64 62 62 62 62 62 63 63 63 62 62 62 61 61 60 59 59 58 57 57 57 58 60 62 65 69 73 78 83 88 93 98 102 105 108 111 114 116 118 120 121 122 122 122 123 123 122 122 120 119 118 117 116 116
73 74 75 77 78 79 77 74 70 66 63 60 58 56 54 52 51 51 51 50 49 48 47 46 46 45 45 44 44 43 42 41 39 37 33 29 25 23 21 20 21 24 28 35 42 49 56 60 62 62 62 61 61 61 61 62 62 61 61 61 61 61 60 60 59 58 57 56 56 55 56 57 59 61 65 69 74 78 84 89 94 98 102 105 108 111 114 116 118 119 120 121 122 122 122 122 122 121 120 119 118 117 116
Wind_Direction
292 291 289 288 287 286 285 284 282 281 280 279 278 277 276 275 274 273 272 271 270 270 269 268 268 267 267 266 266 265 265 264 263 262 262 261 261 261 260 260 260 259 258 258 257 257 256 255 254 254 253 253 253 252 252 251 251 251 250 250 250 250 249 249 249 248 248 247 247 246 245 245 244 244 244 243 243 242 240 239 237 234 231 230 230 231 231 232 231 231 232 232 232 233 233 232 231 230 229 228 227 226 226
293 292 291 290 289 288 286 285 284 283 282 280 279 278 277 276 275 274 273 272 271 270 269 268 268 267 266 266 265 264 264 263 263 262 261 261 260 260 260 259 259 259 258 258 257 257 256 255 255 254 253 253 253 252 252 251 251 250 250 250 250 249 249 249 248 248 248 247 247 246 245 245 244 244 244 243 243 242 241 240 238 236 233 231 230 230 231 231 231 230 231 231 232 232 232 232 232 231 230 228 227 226 226
294 293 292 291 290 289 287 286 285 284 283 282 281 279 278 277 276 274 273 272 271 270 269 269 268 267 267 266 265 264 264 263 262 262 261 260 259 259 258 258 258 258 258 257 257 256 256 255 255 254 254 253 253 252 252 251 251 250 250 250 249 249 249 249 248 248 248 247 247 247 246 245 244 244 243 243 243 242 241 241 240 238 236 233 231 230 230 230 230 230 230 230 231 231 232 232 232 231 230 229 228 227 226
295 294 292 291 290 289 288 287 286 285 284 283 282 280 279 278 277 276 274 273 272 271 270 269 268 267 266 266 265 264 264 263 262 262 261 260 259 258 257 257 257 257 257 257 256 256 255 255 255 254 254 253 253 252 252 251 251 250 250 249 249 249 249 248 248 247 247 247 247 247 246 245 245 244 244 243 243 242 242 241 240 239 238 236 234 232 230 230 230 229 229 230 230 231 231 231 232 231 231 230 229 228 227
295 294 293 292 291 289 288 287 286 285 284 283 282 281 280 279 278 277 276 274 273 272 271 269 268 267 266 266 265 264 264 263 262 262 261 260 260 259 258 257 256 256 256 256 255 255 255 254 254 254 253 253 253 252 252 251 250 250 250 249 249 249 249 248 248 247 247 247 247 246 246 245 245 244 244 243 243 242 242 241 241 240 239 238 236 234 232 230 229 229 229 229 229 230 230 231 231 231 231 231 230 229 227
295 294 293 292 291 290 289 288 287 286 285 284 283 282 281 280 279 278 277 276 274 273 272 271 269 268 267 266 265 264 264 263 262 262 261 261 260 259 258 257 256 255 255 255 255 254 254 254 253 253 253 253 252 252 252 251 250 250 250 249 249 249 248 248 248 247 247 247 246 246 246 245 245 244 244 243 243 243 242 242 241 240 239 239 238 236 234 232 230 229 228 229 229 229 230 230 230 231 231 231 231 230 229
295 294 293 292 291 290 289 288 287 286 285 284 283 282 281 280 279 278 278 277 276 275 274 273 271 270 269 267 266 265 264 263 262 262 261 260 260 259 259 258 257 255 254 254 254 254 253 253 253 252 252 252 252 251 251 251 250 250 249 249 249 248 248 248 248 247 247 246 246 246 245 245 245 244 244 243 243 243 242 242 241 240 239 239 238 238 237 235 232 230 229 228 229 229 230 230 230 230 230 231 231 230 229
295 294 293 292 291 290 290 289 288 287 286 285 284 283 282 281 280 279 278 277 276 276 275 274 273 272 271 269 268 266 265 264 263 262 261 260 260 259 259 258 258 256 255 254 253 253 253 253 252 252 251 251 251 251 251 250 250 250 249 249 248 248 248 248 247 247 247 247 246 245 245 245 245 244 244 243 243 243 242 242 241 240 240 239 238 238 237 237 235 232 230 229 229 229 229 230 230 230 230 230 231 230 230
295 295 294 293 292 291 290 289 288 287 287 286 285 284 283 282 281 280 279 278 277 276 276 275 274 273 272 271 270 269 267 266 264 263 262 261 260 259 259 258 258 257 256 255 254 253 253 252 252 252 251 250 250 250 250 250 249 249 249 249 248 248 247 247 247 247 247 247 246 245 245 244 244 244 244 243 243 242 242 242 241 241 240 239 238 238 238 237 236 235 233 231 229 229 229 230 230 229 229 230 230 230 230
296 295 294 294 293 292 291 290 289 289 288 287 286 285 284 283 282 281 280 279 278 277 276 276 275 274 273 272 271 270 269 268 266 265 263 262 261 260 259 258 257 257 256 256 255 254 253 252 252 251 251 250 250 249 249 249 249 249 249 248 248 247 247 247 247 246 246 246 246 246 245 244 244 244 244 243 243 242 242 242 241 241 240 239 238 238 237 237 237 236 235 233 231 230 229 230 230 230 229 229 230 230 230
297 296 296 295 294 293 292 292 291 290 289 288 287 286 285 285 284 283 282 281 280 279 278 277 276 275 274 273 272 271 270 269 268 267 265 264 262 261 260 258 258 257 256 256 255 254 253 252 252 251 251 250 250 249 249 248 248 248 248 248 247 247 247 246 246 246 246 246 246 245 245 244 244 243 243 243 243 242 242 241 241 241 240 240 239 238 237 237 237 237 236 235 233 231 230 230 230 230 229 229 229 229 230
298 297 296 296 295 294 293 292 292 291 290 289 288 287 286 285 284 283 282 281 280 279 278 277 276 275 274 273 272 271 270 270 269 268 267 266 264 263 261 260 258 257 256 256 255 255 254 253 252 251 251 250 250 249 249 248 248 247 247 247 247 247 246 246 245 245 245 245 245 245 245 245 244 243 243 243 242 242 242 241 241 240 240 240 239 238 237 237 236 236 236 236 235 233 232 231 230 230 230 229 229 229 229
298 297 297 296 295 294 293 292 292 291 290 289 288 287 287 286 285 284 283 282 281 280 279 278 277 276 275 274 273 272 271 270 269 268 267 266 265 264 263 261 260 258 257 256 255 255 254 253 252 251 250 250 250 249 249 248 247 247 247 247 246 246 246 245 245 245 244 244 245 245 245 244 244 243 243 242 242 242 241 241 241 240 240 240 239 239 238 237 236 236 236 236 235 235 233 232 231 231 230 229 229 229 229
298 297 297 296 295 294 293 293 292 291 290 289 289 288 287 286 285 284 283 282 281 280 279 278 277 276 275 274 273 272 271 270 269 268 267 267 266 265 264 263 261 260 258 257 256 255 254 253 253 252 251 250 249 249 249 248 248 247 246 246 246 246 245 245 244 244 244 244 244 244 244 244 244 243 243 242 242 241 241 241 240 240 240 239 239 239 238 237 236 235 235 235 235 235 235 233 232 231 231 230 229 229 229
299 298 297 296 296 295 294 294 293 292 291 290 290 289 288 287 286 285 284 283 282 281 280 279 277 276 275 274 273 272 271 270 269 268 267 266 265 265 264 263 262 261 260 258 257 256 255 254 253 252 251 250 249 249 248 248 248 247 246 246 246 245 245 245 244 244 243 243 243 243 243 243 243 243 243 242 242 241 241 241 240 240 239 239 239 239 238 238 237 235 235 234 234 235 235 234 234 233 232 231 230 229 229
299 299 298 297 297 296 295 295 294 293 292 291 291 290 289 288 287 286 285 284 283 282 281 279 278 277 276 275 274 273 271 270 269 268 267 266 265 264 264 263 262 261 260 259 258 257 256 254 253 253 252 251 250 249 248 248 247 247 246 246 245 245 245 244 244 243 243 243 242 242 242 242 242 242 242 242 242 241 241 240 240 239 239 239 239 238 238 238 237 236 235 234 234 234 234 235 234 234 233 232 230 230 229
300 299 299 298 298 297 296 295 295 294 293 292 291 290 289 288 287 286 285 284 283 282 281 280 279 278 277 276 275 273 272 271 270 269 268 266 265 264 263 263 262 261 260 260 259 258 256 255 254 253 252 251 250 249 248 247 247 247 246 246 245 245 244 244 244 243 243 242 242 241 241 241 241 241 242 241 241 241 241 240 240 239 239 238 238 238 238 238 237 236 235 234 234 234 234 234 234 234 234 233 232 230 229
300 299 299 298 298 297 296 296 295 294 293 292 292 291 289 288 287 286 285 284 283 282 281 280 279 278 277 276 275 274 273 272 271 270 268 267 266 265 264 263 262 261 260 259 258 258 257 256 255 254 253 252 251 250 249 248 247 246 246 246 245 245 244 244 244 243 243 242 242 241 241 240 240 240 241 241 241 241 240 240 240 239 239 238 238 238 237 237 237 237 236 235 234 233 233 233 234 234 234 234 233 232 230
300 299 299 298 298 297 296 296 295 294 293 292 292 290 289 288 287 286 285 284 283 282 281 280 279 278 277 276 276 275 274 273 272 270 269 268 267 265 264 263 262 261 260 259 258 257 257 256 255 254 253 252 252 251 250 248 247 246 245 245 245 244 244 243 243 243 243 242 242 241 240 240 240 240 240 240 240 240 240 240 240 239 239 238 238 237 237 237 237 237 236 236 235 234 233 233 233 233 234 234 234 233 231
300 299 299 298 297 297 296 295 294 293 293 292 291 290 289 288 287 286 285 284 284 283 282 281 280 279 278 277 276 275 274 273 272 271 270 269 267 266 265 264 262 261 260 259 258 257 256 256 255 254 253 253 252 251 250 249 248 247 246 245 244 244 244 243 243 242 242 242 242 241 240 240 239 239 239 239 239 239 239 239 239 239 238 238 237 237 237 236 236 236 236 236 235 234 233 233 233 233 233 234 234 234 233
300 299 298 298 297 296 295 294 293 292 291 290 289 288 287 286 286 285 284 284 283 283 282 281 280 279 278 277 276 275 274 273 272 271 270 269 268 267 266 264 263 262 260 259 258 257 256 255 254 254 253 253 252 251 250 249 249 247 246 245 244 244 243 243 242 242 242 242 241 241 241 240 239 238 238 238 238 238 238 238 238 238 238 238 237 237 236 236 236 236 236 236 236 235 234 233 232 232 232 233 233 234 234
299 299 298 297 296 295 294 293 292 291 290 289 288 287 286 286 285 284 284 283 283 282 281 281 280 280 279 278 277 276 275 274 273 272 271 270 269 267 266 265 264 262 261 260 259 257 256 255 254 253 253 252 252 251 250 250 249 248 247 246 245 243 243 243 242 242 241 241 241 241 241 240 239 238 238 237 237 237 237 238 238 238 238 237 237 236 236 236 235 235 235 235 235 235 234 233 233 232 232 232 233 233 234
299 299 298 297 296 294 293 292 291 290 289 288 287 287 286 285 285 284 284 283 282 282 281 281 280 279 279 278 277 276 275 274 274 272 271 270 269 268 267 266 265 263 262 260 259 258 257 255 254 253 252 252 251 250 250 249 249 248 247 246 245 244 243 242 242 241 241 240 240 240 240 240 239 239 238 237 237 236 236 237 237 237 237 237 237 236 236 235 235 235 235 235 235 235 234 234 233 232 232 232 232 233 233
299 298 297 296 295 294 293 292 291 290 289 288 288 287 286 286 285 285 284 283 283 282 281 281 280 279 279 278 277 276 276 275 274 273 272 271 270 268 267 266 265 264 263 261 260 259 257 256 255 253 252 251 251 250 249 249 248 248 247 246 246 244 243 242 241 241 241 240 240 239 239 239 239 239 238 237 236 236 236 236 236 236 236 236 236 236 235 235 235 234 234 234 234 234 234 234 233 232 232 231 231 232 232
299 298 297 295 294 293 292 291 291 290 289 289 288 288 287 287 286 285 285 284 283 283 282 281 280 280 279 278 277 276 276 275 274 273 272 271 270 269 268 267 266 265 263 262 261 259 258 257 255 254 253 252 250 250 249 248 248 247 247 246 246 245 244 242 241 240 240 240 239 239 239 239 239 239 238 237 237 236 235 235 235 235 235 235 235 235 235 235 234 234 234 234 234 234 234 233 233 232 232 231 231 231 231
299 298 296 295 294 293 293 292 291 291 290 290 289 289 288 287 287 286 285 285 284 283 282 282 281 280 279 278 277 277 276 275 274 273 272 271 271 270 268 267 266 265 264 263 261 260 259 257 256 255 253 252 251 250 249 248 247 247 246 246 245 245 244 243 242 240 240 239 239 239 238 238 238 238 238 237 237 236 235 235 234 234 234 234 235 235 235 234 234 234 233 233 233 233 233 233 233 232 232 231 231 231 231
299 298 296 296 295 294 294 293 293 292 292 291 291 290 289 288 287 287 286 285 284 284 283 282 281 280 279 278 277 277 276 275 274 273 272 271 270 270 269 268 266 265 264 263 262 261 259 258 257 256 254 253 251 250 249 248 247 246 245 245 245 244 244 243 242 241 239 239 239 238 238 237 237 237 237 237 237 236 235 235 234 234 234 234 234 234 234 234 234 233 233 233 233 233 233 233 232 232 232 231 231 230 230
299 298 297 297 296 296 295 295 295 294 293 293 292 291 290 289 288 287 286 285 285 284 283 282 281 280 279 278 277 276 275 275 274 273 272 271 270 269 268 267 266 265 264 263 262 261 260 259 257 256 255 254 252 251 249 248 247 246 245 244 244 244 243 243 242 241 240 239 238 238 238 237 237 237 237 237 237 236 236 235 234 233 233 233 233 233 233 233 233 233 233 232 232 232 232 232 232 232 231 231 231 230 230
300 299 299 298 298 298 297 297 296 296 295 294 294 293 291 290 289 288 287 286 285 284 283 282 281 280 279 278 277 276 275 274 273 272 271 270 269 268 267 267 266 265 264 263 262 261 260 259 258 257 255 254 253 251 250 249 247 246 245 244 243 243 243 242 242 241 240 239 238 237 237 237 236 236 236 236 236 236 236 235 234 233 233 233 232 232 233 233 233 233 233 232 232 232 232 232 231 231 231 231 231 230 230
301 301 300 300 300 300 299 299 298 297 297 296 295 294 292 291 290 289 287 286 285 284 283 281 280 279 278 277 276 275 274 273 272 271 270 269 268 267 266 266 265 264 263 262 261 260 259 258 257 257 256 254 253 252 251 249 248 246 245 244 243 242 242 242 241 241 240 239 238 237 236 236 236 235 235 235 235 235 235 235 234 234 233 232 232 232 232 232 232 232 232 232 232 232 231 231 231 231 231 231 231 230 230
302 302 302 302 302 301 301 300 300 299 298 297 296 295 293 292 291 290 288 287 286 284 283 282 280 279 278 277 276 275 274 273 272 271 270 269 267 266 265 264 264 263 262 261 260 260 259 258 257 256 255 254 253 252 251 250 248 247 246 244 243 242 242 241 241 240 240 239 238 237 236 235 235 235 235 234 234 234 235 235 234 234 233 232 232 231 231 231 232 232 232 232 232 231 231 231 231 231 231 231 231 230 230
304 304 304 304 303 303 302 302 301 300 299 298 297 296 294 293 292 291 289 288 287 285 284 282 281 280 279 277 276 275 274 273 272 271 269 268 267 266 265 264 263 262 261 260 259 258 258 257 256 255 254 254 253 252 251 250 248 247 246 245 243 242 241 241 240 240 239 238 238 237 236 235 234 234 234 234 234 234 234 234 234 234 233 232 232 231 231 231 231 231 231 231 231 231 231 231 230 230 230 230 231 230 230
306 306 305 305 305 304 303 303 302 301 300 299 298 297 296 295 294 292 291 290 288 287 285 284 282 281 279 278 277 275 274 273 272 271 269 268 267 265 264 263 262 261 260 259 258 257 257 256 255 254 253 253 252 251 250 249 248 247 246 245 243 242 241 240 240 239 238 238 237 237 236 235 234 234 234 233 233 233 233 233 233 234 233 233 232 231 230 230 230 230 230 231 231 231 230 230 230 230 230 230 230 230 230
307 307 307 306 306 305 304 304 303 302 301 300 299 298 297 296 295 294 293 292 290 289 287 286 284 282 281 279 278 276 275 273 272 271 269 268 267 265 264 263 261 260 259 258 257 256 255 255 254 253 252 251 251 250 249 249 248 247 246 244 243 242 241 240 239 239 238 237 237 236 235 235 234 233 233 233 233 232 232 232 232 233 233 233 232 231 230 230 229 229 230 230 230 230 230 230 229 229 229 229 229 230 230
309 308 308 307 307 306 305 305 304 303 303 302 301 300 299 298 297 296 295 294 292 291 289 288 286 284 282 281 279 277 276 274 273 271 270 268 267 265 264 263 261 260 259 258 256 255 254 253 253 252 251 250 249 249 248 247 247 246 245 244 243 242 241 240 239 238 237 237 236 236 235 234 234 233 232 232 232 232 232 231 231 232 232 232 232 231 230 230 229 229 229 229 229 229 229 229 229 228 228 228 229 229 229
310 309 309 308 307 307 306 306 305 305 304 303 303 302 301 300 299 298 296 295 294 292 290 289 287 286 284 282 280 278 277 275 273 272 270 269 267 266 264 263 261 260 258 257 256 255 254 253 252 251 250 249 248 248 247 246 246 245 244 243 242 241 240 239 239 238 237 236 236 235 234 234 233 233 232 231 231 231 231 231 231 231 231 231 231 231 230 230 229 228 228 228 228 228 229 229 228 228 228 227 228 228 228
311 310 310 309 309 308 308 307 307 306 306 305 304 303 302 301 300 299 298 296 295 293 291 290 288 286 284 283 281 279 277 275 274 272 271 269 267 266 265 263 261 260 258 257 256 254 253 252 251 250 249 248 247 246 246 245 244 244 243 242 241 241 240 239 238 237 236 236 235 234 234 233 233 232 232 231 231 230 231 230 230 230 230 230 231 231 230 230 229 228 228 228 228 228 228 228 228 228 227 227 227 227 227
312 311 311 310 310 310 309 309 308 308 307 306 305 304 303 302 301 300 298 297 295 293 292 290 288 286 284 283 281 279 277 276 274 272 270 269 267 266 265 263 262 260 258 257 255 254 253 252 251 250 249 248 247 246 245 244 243 242 242 241 240 240 239 238 237 236 236 235 235 234 233 233 232 232 231 231 230 230 230 230 229 229 229 229 230 230 230 229 229 228 228 227 227 227 227 228 228 228 227 227 226 226 227
313 313 312 312 311 311 311 310 310 309 308 307 306 305 304 303 302 300 299 297 296 294 292 290 288 286 284 282 280 279 277 275 273 272 270 269 267 265 264 263 261 260 258 257 255 254 252 251 250 249 248 247 246 245 244 243 242 241 241 240 239 238 238 237 236 235 235 234 234 233 233 232 231 231 230 230 229 229 229 229 229 228 228 228 229 229 229 229 229 228 227 227 226 226 227 227 227 227 227 226 226 226 226
314 314 314 313 313 313 312 311 311 310 309 308 307 306 305 304 302 301 300 298 296 295 293 291 289 286 284 282 280 278 276 274 273 271 269 268 266 265 263 262 261 260 258 257 255 253 252 250 249 248 248 247 246 245 243 242 241 240 240 239 238 237 237 236 235 234 234 233 233 232 232 231 231 230 230 229 229 228 228 228 228 228 228 227 227 228 228 229 228 228 227 226 226 226 226 226 227 227 226 226 226 225 225
316 316 315 315 314 314 313 313 312 311 310 309 308 307 306 305 303 302 300 299 297 295 293 291 289 287 285 282 280 278 276 274 272 270 268 267 265 264 262 261 260 259 257 256 255 253 251 250 249 248 247 246 245 244 243 242 241 240 239 238 237 236 235 235 234 233 233 232 232 231 231 230 230 229 229 228 228 228 227 227 227 227 227 227 227 227 227 228 228 228 227 226 225 225 225 225 226 226 226 226 225 225 224
317 317 317 316 316 315 314 314 313 312 311 310 309 308 307 306 304 303 301 299 297 296 294 292 290 288 286 283 280 278 275 273 271 269 267 265 264 262 261 260 259 257 256 255 254 252 251 249 248 247 246 245 244 243 243 242 240 239 238 237 236 235 235 234 233 232 231 231 230 230 230 229 229 228 228 228 227 227 227 227 226 226 227 226 226 226 226 227 227 227 227 226 225 225 224 225 225 225 226 226 225 225 224
319 318 318 317 317 316 315 315 314 313 312 311 310 309 308 306 305 303 301 300 298 296 294 293 291 289 287 284 281 279 276 273 270 268 266 264 262 261 260 258 257 256 255 254 253 251 250 249 247 246 245 244 243 243 242 241 240 239 238 237 236 235 234 233 232 231 230 230 229 229 229 228 228 227 227 227 226 226 226 226 226 226 226 226 226 225 225 226 226 227 226 226 225 224 224 224 224 225 225 225 225 225 224
320 320 319 319 318 317 316 316 315 314 313 313 311 310 309 307 305 304 302 301 299 297 295 294 292 290 288 286 283 280 277 274 271 268 265 263 261 259 258 256 255 254 253 252 251 250 249 248 246 245 244 243 242 242 241 240 239 239 238 236 235 234 233 232 231 231 230 229 228 228 227 227 227 226 226 226 225 225 225 225 225 225 225 225 225 225 225 225 225 226 226 226 225 224 224 224 224 224 225 225 225 225 224
321 321 320 320 319 318 318 317 316 315 315 314 313 311 310 308 307 305 304 302 301 299 297 295 293 292 290 287 285 282 279 276 272 269 266 263 260 258 256 254 253 252 251 251 250 249 248 247 245 244 243 242 241 240 240 239 239 238 237 236 235 234 233 232 231 230 229 228 228 227 226 226 225 225 225 224 224 224 224 224 224 224 224 224 224 224 224 224 224 225 225 225 225 224 223 223 223 223 224 224 225 224 224
322 322 321 321 320 319 319 318 317 317 316 315 314 313 312 310 309 307 306 304 303 301 300 298 296 294 292 290 287 285 281 278 274 271 267 263 260 257 254 252 251 250 249 249 248 247 247 245 244 243 242 241 240 239 238 238 238 237 236 236 235 234 233 232 231 230 229 228 227 226 225 225 224 224 224 223 223 223 223 223 223 223 223 223 224 224 224 224 224 224 224 225 224 224 223 223 222 223 223 224 224 224 224
323 323 322 322 321 320 320 319 319 319 318 318 316 315 314 312 311 310 309 307 306 305 303 301 299 297 295 292 290 287 284 281 277 273 269 265 261 257 254 251 249 248 247 246 246 246 245 244 243 242 241 239 238 237 237 236 236 236 236 235 235 234 233 232 231 230 229 228 227 226 225 224 224 223 223 222 222 222 222 222 222 222 222 222 223 223 223 223 223 223 223 224 224 223 223 222 222 222 222 223 223 224 224
325 324 324 323 322 322 321 321 321 321 321 320 319 317 316 315 314 313 312 311 310 309 307 305 303 301 298 296 293 290 287 283 279 276 271 267 262 258 254 250 248 245 244 243 243 243 243 243 242 240 239 238 237 236 235 235 235 235 235 235 234 234 233 232 231 230 228 227 226 225 225 224 223 223 222 222 221 221 221 221 221 221 221 221 222 222 222 222 222 222 223 223 223 223 222 222 221 221 222 222 223 223 223
326 325 325 324 324 323 323 323 324 323 323 322 321 320 319 318 318 317 316 315 314 312 311 309 307 304 302 299 296 292 289 286 282 278 274 269 264 259 254 250 247 244 242 241 240 241 241 241 240 239 237 236 235 234 233 233 233 234 234 234 234 234 233 232 231 230 229 227 226 225 225 224 223 222 222 221 221 220 220 220 220 220 220 220 221 221 221 222 222 222 222 222 222 222 222 222 221 221 221 222 222 223 223
327 326 326 325 325 325 325 326 326 326 325 324 323 322 322 321 320 320 319 318 316 315 313 312 309 307 305 302 299 296 292 289 285 280 276 271 266 261 255 250 246 243 239 238 237 238 238 238 238 237 236 234 233 233 232 232 232 233 233 233 233 233 233 232 231 230 229 228 226 225 224 224 223 222 222 221 220 220 220 219 219 219 219 219 220 220 220 221 221 221 221 221 222 222 222 221 221 221 221 221 222 222 222
328 327 327 327 327 327 328 328 328 328 327 326 325 325 324 324 323 322 321 320 319 318 317 316 314 311 309 307 304 301 297 293 288 284 279 273 267 262 257 251 245 241 238 235 234 234 235 236 236 235 234 233 233 232 232 231 231 231 232 232 232 233 233 232 232 231 229 228 227 226 225 224 223 222 222 221 220 220 219 219 219 219 219 219 219 219 219 220 220 220 220 221 221 221 221 221 221 220 220 220 221 221 222
329 329 328 328 329 329 330 330 330 330 329 328 327 327 326 326 325 324 323 323 322 322 322 321 319 317 315 312 309 306 302 298 293 288 283 276 270 264 258 252 246 241 236 233 231 231 233 234 234 234 233 233 232 231 231 230 230 230 230 231 232 232 232 232 232 231 230 229 227 226 225 224 223 222 222 221 221 220 219 219 219 218 218 218 218 218 218 219 219 220 220 220 220 221 221 221 220 220 220 220 220 221 221
330 330 330 330 331 331 332 332 332 331 330 330 329 329 328 327 327 326 326 326 326 327 326 326 324 323 320 318 315 312 308 303 298 292 286 281 274 267 259 254 248 241 235 231 228 228 230 232 232 233 233 232 231 230 230 229 229 229 229 230 231 231 232 232 232 232 231 229 228 227 225 224 223 222 222 221 221 220 220 219 219 218 218 217 217 217 217 218 218 219 219 219 220 220 220 220 220 220 219 219 219 220 220
332 331 331 332 332 333 334 334 333 333 332 331 331 331 330 329 329 328 329 329 330 330 330 329 328 327 325 323 321 318 314 309 303 297 291 285 279 272 263 255 247 241 235 229 226 225 228 230 231 231 231 231 230 229 229 228 228 228 228 229 229 230 231 231 232 232 231 230 229 228 226 225 224 223 222 221 221 220 220 219 219 218 218 217 217 217 217 217 217 218 218 219 219 219 220 220 220 219 219 219 219 219 220
333 333 333 333 334 335 335 335 335 334 334 333 333 333 332 331 331 331 332 332 333 333 333 332 331 330 329 328 326 324 320 315 310 303 297 291 284 276 267 257 248 241 235 229 225 223 225 227 229 229 229 229 228 228 228 227 227 227 227 228 228 229 230 230 231 231 231 231 230 229 227 226 224 223 222 221 221 221 220 220 219 219 218 218 217 216 216 216 216 217 217 218 218 219 219 219 219 219 219 218 218 218 219
334 334 334 335 336 336 336 336 336 336 335 335 335 334 334 333 333 333 334 334 335 335 335 335 335 334 334 333 332 330 327 322 317 311 304 297 289 281 272 262 252 243 235 229 224 222 223 225 226 227 227 227 227 226 226 226 226 226 226 227 227 228 229 229 230 230 231 231 230 229 228 227 225 224 223 222 221 221 220 220 220 219 219 218 217 217 216 216 216 216 217 217 218 218 218 219 219 219 218 218 218 218 218
335 336 336 336 337 338 338 338 337 337 337 336 336 336 335 334 334 335 335 336 336 337 337 337 338 338 338 338 338 336 333 329 324 318 311 304 296 287 277 266 255 244 235 228 224 221 221 222 224 225 226 225 225 225 225 225 225 225 226 226 226 227 228 228 229 230 230 230 230 230 229 228 227 225 224 222 221 221 221 220 220 220 219 219 218 217 216 216 215 215 216 216 217 217 218 218 218 218 218 218 218 217 218
337 337 338 338 339 339 339 339 339 338 338 338 337 337 336 336 335 336 336 337 338 338 339 340 341 342 342 343 343 342 340 337 332 325 318 310 302 293 283 271 258 246 237 230 224 221 219 220 221 223 224 224 224 224 224 224 225 225 225 226 226 226 227 227 228 229 229 230 230 230 229 229 227 226 225 223 222 221 221 221 221 220 220 219 218 217 217 216 215 215 215 216 216 217 217 217 218 218 218 217 217 217 217
338 338 339 340 340 340 340 340 340 340 339 339 338 338 337 337 336 336 337 337 339 340 342 343 344 345 346 347 347 347 347 344 340 335 327 318 309 300 290 278 264 251 239 231 225 220 218 218 219 221 222 222 223 223 223 223 224 224 225 225 225 226 226 227 227 227 228 229 229 229 230 229 228 227 226 225 223 222 221 221 221 221 220 220 219 218 217 216 215 215 215 215 215 216 216 217 217 217 217 217 217 217 217
339 340 340 341 341 342 342 341 341 341 340 339 339 339 338 338 337 337 337 338 340 342 344 345 346 347 349 350 352 352 353 352 349 345 339 331 321 309 297 285 270 255 242 232 225 220 217 217 217 218 219 221 222 222 222 222 223 224 224 225 225 225 225 226 226 226 227 227 228 229 229 229 229 228 227 226 224 223 222 222 221 221 221 220 219 219 218 217 216 215 215 215 215 215 216 216 216 216 216 216 216 216 217
340 341 342 342 343 343 343 343 342 342 341 340 339 339 339 338 338 337 338 340 342 344 346 347 348 350 351 353 355 356 357 357 356 354 350 345 336 323 309 293 277 260 245 234 226 220 217 216 216 216 217 219 220 221 221 221 222 223 224 224 224 225 225 225 225 225 226 226 227 228 229 229 229 229 228 227 226 224 223 222 222 221 221 221 220 219 218 217 216 216 215 215 215 215 215 215 215 216 216 216 216 216 216